Regional Weather Roundup
Issued by NWS Midland/Odessa, TX

Home | Current Version | Previous Version | Text Only | Print | Product List | Glossary On
Versions: 1 2 3 4 5 6 7 8 9 10 11 12 13 14 15 16 17 18 19 20 21 22 23 24 25 26 27 28 29 30 31 32 33 34 35 36 37 38 39 40 41 42 43 44 45 46 47 48 49 50
000
ASUS44 KMAF 310410
RWRMAF
MIDLAND AREA WEATHER ROUNDUP
NATIONAL WEATHER SERVICE MIDLAND TX
1100 PM CDT FRI JUL 30 2021

...IN SOUTHWEST TEXAS AND SOUTHEAST NEW MEXICO...

CITY           SKY/WX    TMP DP  RH WIND       PRES   REMARKS
ALPINE         CLEAR     77  54  43 SE5       30.29R
ANDREWS        FAIR      80  62  54 SE6       30.16R
ARTESIA        MOCLDY    79  64  61 W5        30.18R
BIG SPRING     CLEAR     79  66  63 E7        30.11S
CARLSBAD       MOCLDY    76  60  57 W6        30.14R
DRYDEN           N/A     85  62  46 E8        30.11R
FORT STOCKTON  CLEAR     81  57  43 S8        30.14R
GUAD PASS      MOCLDY    73  56  54 NE22      30.31R
HOBBS          CLEAR     72  66  83 CALM      30.17S
LAMESA         NOT AVBL
MARFA          CLEAR     75  55  49 E10       30.27R
MIDLAND AIRPK  CLEAR     82  64  55 E6        30.13R
MIDLAND INTL   CLEAR     81  64  56 SE8       30.13R
ODESSA         PTCLDY    84  61  45 SE7       30.14R
PECOS          CLEAR     85  54  34 SE8       30.10R
PRESIDIO       FAIR      87  50  27 CALM      30.11R
SEMINOLE       PTCLDY    76  58  53 CALM      30.20R
SNYDER         CLEAR     81  64  57 E5        30.12S
WINK           CLEAR     85  60  42 E9        30.10R
$$
...OTHER STATIONS IN TEXAS...

CITY           SKY/WX    TMP DP  RH WIND       PRES   REMARKS
ABILENE        CLEAR     82  65  56 SE7       30.08R
AMARILLO       CLEAR     78  61  55 S10       30.15R
AUSTIN         PTCLDY    80  74  81 S8        30.03R
BROWNSVILLE    CLEAR     81  76  84 SE3       30.05R
CORPUS CHRISTI PTCLDY    81  78  91 S7        30.02S
DALLAS FTW     PTCLDY    88  73  61 S8        30.02R
DEL RIO        CLEAR     91  66  43 SE10      30.03R
EL PASO        PTCLDY    82  52  35 E6        30.17R
HOUSTON INT    MOCLDY    80  73  79 CALM      30.05R
LUBBOCK        PTCLDY    79  60  52 S5        30.16R
SAN ANGELO     PTCLDY    82  61  48 E5        30.08R
SAN ANTONIO    PTCLDY    83  74  74 SE10      30.05R
WACO           CLEAR     86  72  62 SE8       30.03S
WICHITA FALLS  CLEAR     83  71  67 S9        30.02R
$$
...OTHER LOCATIONS IN NEW MEXICO...

CITY           SKY/WX    TMP DP  RH WIND       PRES   REMARKS
ALAMOGORDO     CLEAR     77  50  38 S10       30.19R
ALBUQUERQUE    MOCLDY    78  44  29 SE6       30.27R
CANNON AFB     MOCLDY    76  60  57 S7        30.22R
CLOVIS         CLOUDY    73  62  68 SE5       30.23R
HOLLOMAN AFB   NOT AVBL
ROSWELL        MOCLDY    75  62  64 SW6       30.18R
RUIDOSO        CLEAR     64  52  63 S9        30.43R
SANTA FE       PTCLDY    68  51  54 NW6       30.33R
TRUTH OR CONSE CLEAR     81  46  29 SE8       30.22R
TUCUMCARI      MOCLDY    82  56  40 SW10      30.15R
$$



USA.gov is the U.S. government's official web portal to all federal, state and local government web resources and services.